Location: doobydoo
(53.3403°N, 2.6908°W)
Time: 12:01:39
(UTC+00:00)

ISS - Pass Details

Date: 30 November 2021
Orbit: 413 x 422 km, 51.6° (Epoch: 28 January)

Event Time Altitude Azimuth Distance (km) Brightness Sun altitude
Rises 18:16:29 0° 274° (W) 2,388 1.5 -19.8°
Reaches altitude 10° 18:18:36 10° 270° (W) 1,519 0.2 -20.1°
Maximum altitude 18:21:58 57° 191° (S) 504 -3.4 -20.6°
Enters shadow 18:22:05 57° 180° (S) 506 -3.4 -20.6°
